Hourly Data Report for October 30, 2000

SHERBROOKE A
QUEBEC

45°26'00.000" N
71°41'00.000" W
241.40 m
7028124
71610
YSC

Download Data

Hourly Data (October 2000)
Hourly Data Report for October 30, 2000
TIME
LST
Temp Definition
°C
Dew Point Definition
°C
Rel Hum Definition
%
Precip. Amount Definition
mm

Wind Dir Definition
10's deg

Wind Spd Definition
km/h
Visibility Definition
km
Stn Press Definition
kPa
Hmdx Definition


Wind Chill Definition


Weather Definition


00:00 -0.2 -2.5 84   35 11 15.0 98.72   -4 Snow
01:00 -0.1 -2.2 86   36 13 8.0 98.72   -4 Snow
02:00 -0.2 -1.5 91   35 13 1.6 98.69   -4 Snow
03:00 -0.2 -1.0 94   36 7 1.9 98.72   -3 Snow
04:00 0.3 -1.1 90   35 13 15.0 98.69     Snow
05:00 0.7 -1.4 86   36 13 15.0 98.72      
06:00 0.9 -1.4 85   36 11 15.0 98.79      
07:00 1.1 -1.3 84   1 11 15.0 98.85      
08:00 1.3 -1.2 83   1 11 19.3 98.92     Snow
09:00 1.8 -0.8 83   2 13 24.1 98.98     Cloudy
10:00 2.2 -0.7 81   2 20 24.1 98.98     Cloudy
11:00 2.6 -0.2 82   3 19 24.1 99.02     Rain Showers
12:00 3.7 0.4 79   2 19 24.1 99.08     Mostly Cloudy
13:00 5.2 0.2 70   3 26 24.1 99.08     Mainly Clear
14:00 4.4 0.0 73   2 19 24.1 99.15     Mainly Clear
15:00 4.3 0.0 74   2 17 24.1 99.18     Mostly Cloudy
16:00 4.4 -0.3 71   3 19 24.1 99.22     Mostly Cloudy
17:00 3.3 -0.4 77   36 11 24.1 99.28     Cloudy
18:00 2.8 -0.6 78   1 15 15.0 99.28      
19:00 2.8 -0.7 78   36 15 15.0 99.25      
20:00 2.6 -0.6 79   2 13 15.0 99.31      
21:00 2.5 -0.5 81   3 9 15.0 99.28      
22:00 2.5 -0.5 81   2 17 15.0 99.25      
23:00 2.5 -0.4 81   3 19 15.0 99.22      

Notes on Data Quality.

Legend

  • E = Estimated
  • M = Missing
  • NA = Not Available*
  • [empty] = Indicates an unobserved value
Date modified: